Location: Alafon
(8.4500°N, 4.2333°E)
Time: 22:01:33
(UTC+00:00)

Explorer 7 - Pass Details

Date: 26 July 2021
Orbit: 484 x 676 km, 50.3° (Epoch: 18 September)

Event Time Altitude Azimuth Distance (km) Brightness Sun altitude
Rises 04:41:10 0° 229° (SW) 2,536 - -13.1°
Reaches altitude 10° 04:43:24 10° 237° (WSW) 1,653 - -12.5°
Exits shadow 04:44:40 19° 246° (WSW) 1,186 7.9 -12.3°
Maximum altitude 04:46:55 41° 308° (NW) 706 7.1 -11.7°
Drops below altitude 10° 04:50:30 10° 20° (NNE) 1,675 9.9 -10.9°
Sets 04:52:47 0° 28° (NNE) 2,575 11.1 -10.4°
